Location: Alpha Ridge Park
(39.3209°N, 76.9128°W)
Time: 10:25:30
(UTC-04:00)

S-56A Canister/Altair - Pass Details

Date: 21 May 2019
Orbit: 633 x 2499 km, 38.9° (Epoch: 25 June)

Event Time Altitude Azimuth Distance (km) Brightness Sun altitude
Rises 03:12:11 0° 240° (WSW) 3,507 - -23.4°
Reaches altitude 10° 03:14:22 10° 237° (WSW) 2,740 - -23.2°
Exits shadow 03:18:18 41° 220° (SW) 1,626 8.6 -22.8°
Maximum altitude 03:20:58 64° 157° (SSE) 1,415 8.6 -22.5°
Drops below altitude 10° 03:31:08 10° 79° (E) 4,130 11.9 -21.3°
Sets 03:35:10 0° 77° (ENE) 5,409 12.7 -20.9°
